Regional Weather Roundup
Issued by NWS

Home | Current Version | Previous Version | Text Only | Print | Product List | Glossary Off
Versions: 1 2 3 4 5 6 7 8 9 10 11 12 13 14 15 16 17 18 19 20 21 22 23 24 25 26 27 28 29 30 31 32 33 34 35 36 37 38 39 40 41 42 43 44 45 46 47 48 49 50

000
ASUS43 KMKX 240600
RWRWI

WISCONSIN REGIONAL WEATHER ROUNDUP
NATIONAL WEATHER SERVICE MILWAUKEE/SULLIVAN WI
100 AM CDT SUN SEP 24 2017

NOTE: "FAIR" INDICATES FEW OR NO CLOUDS BELOW 12,000 FEET WITH NO
SIGNIFICANT WEATHER AND/OR OBSTRUCTIONS TO VISIBILITY.

WIZ001-002-006>008-014>016-023>028-240700-
NORTHWEST WISCONSIN

CITY           SKY/WX    TMP DP  RH WIND       PRES   REMARKS
SUPERIOR ARPT  CLOUDY    66  65  96 NE5       29.97R
ASHLAND        CLOUDY    68  66  93 NE3       29.98S
6HR MIN TEMP:  68; 6HR MAX TEMP:  78;

HAYWARD        MOCLDY    75  65  70 VRB3      29.99R
6HR MIN TEMP:  70; 6HR MAX TEMP:  78;

SIREN          MOCLDY    71  68  92 NW6       29.97R
CUMBERLAND     PTCLDY    70  63  78 S5        29.99R
RICE LAKE      PTCLDY    71  65  83 SE3       30.00S
CHETEK         PTCLDY    72  67  84 CALM      29.99S
LADYSMITH      CLOUDY    74  65  72 SE6       30.03R
EAU CLAIRE     NOT AVBL
MENOMONIE      CLEAR     69  66  89 SE5       29.98S
NEW RICHMOND   PTCLDY    73  63  68 S7        29.97S
OSCEOLA        PTCLDY    73  65  75 SW3       29.99R
$$

WIZ003>005-009-010-017-018-240700-
NORTH CENTRAL WISCONSIN

CITY           SKY/WX    TMP DP  RH WIND       PRES   REMARKS
MANITOWISH WTR NOT AVBL
ARBOR VITAE    PTCLDY    72  66  82 S3        30.05R
WOODRUFF       PTCLDY    72  66  82 S3        30.05R
RHINELANDER    CLEAR     70  65  84 S3        30.07R
6HR MIN TEMP:  68; 6HR MAX TEMP:  78;

EAGLE RIVER    PTCLDY    68  65  90 CALM      30.06R
LAND O LAKES   MOCLDY    64  64 100 CALM      30.07S
PHILLIPS       PTCLDY    72  66  80 S7        30.02S
TOMAHAWK       CLEAR     65  63  94 CALM      30.06R
MEDFORD        CLOUDY    68  64  85 S6        30.05R
MERRILL        CLEAR     62  62 100 CALM      30.06R FOG
$$

WIZ029-030-035-036-043>047-240700-
CENTRAL WISCONSIN

CITY           SKY/WX    TMP DP  RH WIND       PRES   REMARKS
WAUSAU         CLEAR     70  64  81 SE5       30.04S
6HR MIN TEMP:  67; 6HR MAX TEMP:  80;

MOSINEE        CLEAR     68  63  83 SE5       30.06S
MARSHFIELD     CLEAR     68  62  81 S5        30.04S
6HR MIN TEMP:  68; 6HR MAX TEMP:  78;

STEVENS POINT  PTCLDY    67  65  93 CALM      30.06S
WAUPACA        CLEAR     69  68  96 CALM      30.06S
WAUTOMA        CLEAR     65  64  97 CALM      30.06
6HR MIN TEMP:  65; 6HR MAX TEMP:  78;

WISC RAPIDS    CLEAR     72  63  73 S5        30.06R
6HR MIN TEMP:  70; 6HR MAX TEMP:  78;

CAMP DOUGLAS   NOT AVBL
$$

WIZ011>013-019>022-031-037>040-048>050-240700-
NORTHEAST WISCONSIN

CITY           SKY/WX    TMP DP  RH WIND       PRES   REMARKS
ANTIGO         CLEAR     68  65  91 S6        30.08S
SHAWANO        CLEAR     72  66  81 CALM      30.05S
OCONTO         PTCLDY    67  65  95 CALM      30.04F
STURGEON BAY   CLEAR     74  65  73 S8        30.07S
6HR MIN TEMP:  73; 6HR MAX TEMP:  77;

GREEN BAY      CLEAR     71  67  87 S5        30.06S
6HR MIN TEMP:  70; 6HR MAX TEMP:  80;

MANITOWOC      CLEAR     64  64 100 CALM      30.07S FOG
APPLETON       CLEAR     72  63  73 SE5       30.05S
CLINTONVILLE   NOT AVBL
OSHKOSH        CLEAR     69  65  86 S6        30.06S
6HR MIN TEMP:  69; 6HR MAX TEMP:  81;

$$

WIZ032>034-041-042-053>061-240700-
SOUTHWEST WISCONSIN

CITY           SKY/WX    TMP DP  RH WIND       PRES   REMARKS
LA CROSSE      CLEAR     73  67  81 SW7       29.99S
6HR MIN TEMP:  72; 6HR MAX TEMP:  87;

SPARTA         CLEAR     63  62  95 CALM      30.02S
VIROQUA        CLEAR     73  64  72 SE7       30.04S
BOSCOBEL       CLEAR     66  64  93 CALM      30.03R
6HR MIN TEMP:  65; 6HR MAX TEMP:  83;

PRAIRIE DU CHI CLEAR     73  62  70 E3        30.01S
PLATTEVILLE    CLEAR     72  65  77 E7        30.05R
$$

WIZ056-057-062-063-064-067-068-240700-
SOUTH CENTRAL WISCONSIN

CITY           SKY/WX    TMP DP  RH WIND       PRES   REMARKS
REEDSBURG      CLEAR     67  67  99 CALM      30.05R
BARABOO/DELLS  CLEAR     70  62  75 S3        30.05S
LONE ROCK      NOT AVBL
MINERAL POINT  CLEAR     73  64  73 SE6       30.06S
MADISON        PTCLDY    75  66  73 S6        30.05S
6HR MIN TEMP:  71; 6HR MAX TEMP:  80;

MIDDLETON      CLEAR     71  65  81 SE3       30.06S
WATERTOWN      CLEAR     70  66  88 CALM      30.06S
MONROE         CLEAR     73  61  64 S8        30.07R
JANESVILLE     CLEAR     72  64  78 SE3       30.06R
$$

WIZ051-052-058>065-066-070>072-240700-
SOUTHEAST WISCONSIN

CITY           SKY/WX    TMP DP  RH WIND       PRES   REMARKS
MILWAUKEE      CLEAR     74  67  78 S6        30.07S
6HR MIN TEMP:  74; 6HR MAX TEMP:  81;

WAUKESHA       CLEAR     68  63  83 SE3       30.09S
MILWAUKEE/TIMM CLEAR     70  61  73 CALM      30.08S
RACINE         CLEAR     74  69  85 S5        30.09S
6HR MIN TEMP:  72; 6HR MAX TEMP:  79;

BURLINGTON     CLEAR     63  63 100 CALM      30.08R
KENOSHA        CLEAR     74  66  76 SE5       30.08S
6HR MIN TEMP:  71; 6HR MAX TEMP:  80;

FOND DU LAC    CLEAR     69  63  81 S5        30.07R
6HR MIN TEMP:  69; 6HR MAX TEMP:  81;

SHEBOYGAN      CLEAR     65  65 100 CALM      30.08R FOG
6HR MIN TEMP:  63; 6HR MAX TEMP:  77;

WEST BEND        N/A     64  63  94 CALM      30.08S
JUNEAU         CLEAR     69  64  85 SE5       30.08S
$$

LSZ147-162-240700-
LAKE SUPERIOR

STATION/POSITION TIME  TEMP    WIND        PRES    WAVE
                       AIR SEA DIR/SP/G            HT/PER
                 (UTC) (F)     (DEG/KT/KT) (MB)    (FT/S)
W MID LAKE BUOY  0450   60 56   30/  6/  6 1014.6F   0
DEVILS ISLAND    0500   66      50/  7/  7 1014.9S
PORT WING        0440   70      70/  4/  8 1014.6
SAXON HARBOR     0530   69      CALM  /  3 1014.6R
$$

LMZ867-665-643>646-240700-
LAKE MICHIGAN

STATION/POSITION TIME  TEMP    WIND        PRES    WAVE
                       AIR SEA DIR/SP/G            HT/PER
                 (UTC) (F)     (DEG/KT/KT) (MB)    (FT/S)
N MID LAKE BUOY  0450   69 67  200/  6/  6 1018.1R   1/ 4
NORTHPORT PIER   0540   76     180/  3/  7 1017.3S
KEWAUNEE LAKESHO 0530   65     160/  2/  3 1017.2R
SHEBOYGAN LAKESH 0500   69     140/  5/  5 1017.7R
PORT WASHINGTON  0540   69      50/  1/  2 1019.0S
ATWATER BUOY     0409   70 66  160/  6/  6 1018.2R
MILWAUKEE LAKESH 0530   71     180/  6/  6   N/A
S MID LAKE BUOY  0450   74 71  100/  8/  8 1018.3S   0
KENOSHA   LAKESH 0500   75     180/  7/  9 1017.9
$$

TC  - TEMPERATURE IN CELSIUS
VSB - VISIBILITY IN STATUTE MILES
WCI - WIND CHILL INDEX
HX  - HEAT INDEX





USA.gov is the U.S. government's official web portal to all federal, state and local government web resources and services.